Weather in Borok

Russia / Kostroma Oblast     58°21′06″N   41°37′37″E
temp.,
°C
wind,
m/s
gust,
m/s
humid.,
%
clouds,
%
prec.,
mm/h
press.,
hPa
HPBL,
m
19 january, wed
wed1900:00−12wnw399595 0.0 1011248
03:00−14w379888 0.1 1012132
06:00−15w259980 0.0 101377
09:00−18wsw2210090 0.1 101337
12:00−12wsw249584 0.0 1014160
15:00−11ssw369510 0.0 1013158
18:00−14ssw4119456 0.0 1012200
21:00−10ssw5148781 0.0 1009378
20 january, thu
thu2000:00−9ssw51494100 0.1 1008430
03:00−8ssw61592100 0.4 1006470
06:00−7ssw61593100 0.4 1004504
09:00−6ssw61392100 0.6 1004530
12:00−5ssw61392100 0.1 1004550
15:00−5s61492100 0.2 1004602
18:00−5s61592100 0.1 1003569
21:00−6s61492100 0.1 1004571
21 january, fri
fri2100:00−8s61491100 0.1 1004559
03:00−9s61491100 0.2 1004556
06:00−9sse61392100 0.1 1005521
09:00−9sse51293100 0.6 1006488
12:00−8sse51193100 0.3 1007510
15:00−8se51193100 0.7 1007503
18:00−9se61492100 0.2 1008509
21:00−10se61392100 0.5 1008575
22 january, sat
sat2200:00−9ese51391100 0.1 1009552
03:00−9ese51291100 0.2 1010558
06:00−10ese5129198 0.1 1011567
09:00−10ese5119199 0.1 1014471
12:00−8ese4992100 0.1 1016421
15:00−9ese3794100 0.1 1018284
18:00−13e389987 0.0 1021112
21:00−15e249984 0.1 102351
23 january, sun
sun2300:00−18e1110098 0.0 102511
03:00−19ene11100100 0.1 102711
06:00−16ne11100100 0.1 102724
09:00−14ne1198100 0.1 102829
12:00−9nne119297 0.1 1029204
15:00−9nnw129688 0.1 103067
18:00−14nnw1110088 0.1 10319
21:00−16nw11100100 0.1 10339